Temperature
14 14 14 14 14 14 14 14 14 14 14 14 14 14 14 13 13 13 13 14 14 14 13 13 13 13 13 13 13 13 12 12 12 12 12 12 12 12 12 11 11 11 11
14 14 14 14 14 14 14 14 14 14 14 14 13 13 13 13 13 13 13 13 13 13 13 13 13 13 13 12 12 12 12 12 12 12 12 12 12 12 11 11 11 11 11
14 14 14 14 14 14 14 14 13 13 13 13 13 13 13 13 13 13 13 13 13 13 13 13 13 12 12 12 12 12 12 12 12 12 11 11 11 11 11 11 11 11 11
13 13 13 13 13 13 13 13 13 13 13 13 13 13 13 13 13 13 13 13 13 13 12 12 12 12 12 12 12 12 12 12 12 11 11 11 11 11 11 11 10 10 10
13 13 13 13 13 13 13 13 13 13 13 13 12 12 12 12 12 12 12 12 12 12 12 12 12 12 12 12 12 11 11 11 11 11 11 11 11 11 11 10 10 10 10
13 13 13 13 13 13 13 13 13 12 12 12 12 12 12 12 12 12 12 12 12 12 11 11 11 11 11 11 11 11 11 11 11 11 11 11 10 10 10 10 10 10 10
13 12 12 12 12 12 12 12 12 12 12 12 11 11 11 11 11 11 11 11 11 11 11 11 11 11 11 11 11 11 11 11 11 11 10 10 10 10 10 10 10 10 10
12 12 12 12 12 12 12 12 12 11 11 11 11 10 10 11 11 11 10 11 11 11 11 11 11 10 10 10 11 11 10 10 10 10 10 10 9 9 9 9 9 9 9
11 12 12 12 12 12 12 12 12 11 11 11 11 10 10 11 10 10 10 10 10 10 10 10 10 10 10 10 10 10 10 10 10 10 9 9 9 9 9 9 9 9 9
11 11 11 11 11 11 11 11 11 11 11 10 10 10 10 10 9 9 10 10 10 10 10 10 10 10 10 10 10 10 10 10 10 9 9 9 9 9 8 8 8 8 8
11 11 11 11 11 11 11 11 11 11 10 10 10 9 9 9 9 9 9 9 9 9 9 9 9 9 9 9 9 9 9 9 9 9 9 8 8 8 8 8 8 8 8
10 10 10 10 10 10 10 10 10 10 10 10 9 9 9 8 8 8 8 8 8 9 9 9 9 9 9 9 9 9 9 9 9 9 8 8 8 8 8 8 8 8 8
9 10 10 10 10 10 10 10 10 10 9 9 9 9 8 8 8 8 8 8 8 8 8 8 8 9 9 9 9 8 8 8 9 8 8 8 8 8 8 7 7 7 7
9 9 9 9 9 9 9 9 9 9 9 9 9 8 8 8 7 7 7 7 7 7 7 8 8 8 8 8 8 8 8 8 8 8 8 8 8 7 7 7 7 7 7
8 8 8 8 9 9 9 8 8 8 8 8 8 8 7 7 7 7 7 7 7 6 6 7 7 8 8 8 7 7 7 7 7 7 7 7 7 7 7 7 7 7 6
8 8 8 8 8 8 8 8 8 8 7 7 7 7 7 7 7 6 6 6 6 6 6 6 7 7 7 7 7 7 7 7 7 7 7 7 6 7 7 6 6 6 6
7 8 8 7 7 7 8 7 7 7 7 7 7 6 6 6 6 6 6 6 6 6 5 6 6 6 6 6 6 6 6 6 6 6 6 6 6 6 6 6 6 5 5
7 7 7 7 7 7 7 7 7 6 6 6 6 6 6 5 5 5 5 5 5 5 5 5 5 5 5 6 6 6 5 5 5 6 6 6 6 5 5 5 5 5 5
6 6 6 6 6 6 6 6 6 6 6 5 5 5 5 5 5 5 5 5 5 5 5 5 5 5 5 5 5 5 5 5 5 5 5 5 5 5 5 5 5 5 5
6 6 6 6 6 6 6 6 5 5 5 5 5 5 5 4 4 4 4 4 4 4 4 4 4 4 4 4 4 4 4 3 4 4 4 4 4 4 4 4 4 4 4
5 5 5 5 5 5 5 5 5 5 5 5 4 4 4 4 4 4 4 4 4 4 4 4 4 3 3 3 3 3 3 3 3 3 3 3 3 3 3 3 3 3 4
5 5 5 5 5 5 4 4 4 4 4 4 4 4 4 4 4 4 4 4 4 4 4 3 3 3 3 3 3 3 2 2 2 2 2 2 2 2 2 3 3 3 3
4 4 4 4 4 4 4 4 4 4 3 3 3 3 3 3 3 3 3 3 3 3 3 3 3 3 3 3 3 3 2 2 2 2 2 2 2 2 2 2 2 2 3
4 4 4 4 4 4 4 3 3 3 3 3 3 3 3 3 3 3 3 3 3 3 3 3 3 3 3 3 3 3 2 2 2 1 2 1 1 2 2 2 2 2 2
4 3 3 3 3 3 3 3 3 3 3 2 2 2 2 2 2 2 2 2 2 2 2 3 3 2 2 2 2 2 2 1 1 1 1 1 1 1 1 1 1 1 1
3 3 3 3 2 2 2 2 2 2 2 2 2 2 2 2 2 2 2 2 2 2 2 2 2 2 2 2 2 1 1 1 1 0 0 1 1 1 0 1 1 1 1
Wind_Speed
8 8 7 9 10 10 10 9 9 9 8 8 8 8 8 8 8 7 6 8 9 9 9 9 10 10 9 9 9 9 8 8 8 8 7 7 7 7 8 7 7 7 7
9 8 8 8 9 10 10 9 9 8 7 7 7 9 9 9 9 8 7 8 10 10 10 11 11 11 11 11 11 10 10 10 10 9 9 9 9 8 8 8 8 8 8
10 9 8 8 8 10 10 9 9 8 6 7 8 8 8 9 9 9 9 8 8 11 12 12 12 12 12 12 12 12 11 11 11 10 10 10 10 10 9 9 8 8 9
11 9 8 8 9 9 8 7 7 7 7 7 7 7 7 7 9 9 9 8 8 9 10 12 12 13 13 13 13 13 13 12 12 11 11 10 10 10 10 9 9 9 9
11 9 8 8 9 7 7 7 7 7 7 7 7 7 7 7 8 8 9 9 9 9 9 9 12 13 13 14 14 14 14 13 13 13 12 11 11 11 11 11 10 10 9
9 8 7 8 8 7 7 7 8 7 7 6 6 7 7 8 8 8 9 9 9 10 10 10 10 10 13 14 14 14 14 14 14 14 13 12 12 12 11 12 11 11 10
6 7 6 7 7 7 8 8 7 7 6 5 4 5 7 8 9 8 8 8 9 10 11 11 10 10 9 12 14 14 15 15 15 14 14 13 13 12 12 12 12 11 11
4 5 7 7 7 7 8 8 7 6 6 5 4 4 4 6 7 8 8 8 9 9 10 11 11 11 10 10 11 13 14 15 15 16 15 15 14 13 12 12 11 11 10
4 4 5 6 7 7 7 8 8 9 7 7 7 5 4 6 5 7 9 9 9 8 9 9 12 12 12 11 11 12 13 15 15 16 16 15 15 14 13 13 11 10 10
4 4 5 5 6 6 7 8 8 7 7 7 7 7 7 5 5 5 6 8 9 10 10 8 10 11 12 12 12 12 12 14 15 16 16 15 15 13 13 12 12 10 10
2 3 4 4 5 5 7 7 8 8 8 8 7 7 7 6 8 7 8 7 7 9 9 9 8 9 11 11 11 12 12 14 16 16 17 16 15 14 12 11 10 9 8
2 2 3 3 4 5 6 6 7 9 8 9 8 8 8 7 7 7 8 8 9 8 8 7 8 8 9 10 11 11 12 13 15 15 16 15 14 13 12 10 9 9 8
2 2 3 3 3 4 5 6 6 7 8 9 8 8 8 8 7 7 8 8 8 7 6 7 8 8 8 9 9 10 11 11 13 14 15 15 14 12 11 10 9 8 6
2 3 3 3 4 4 4 5 5 6 7 8 8 8 7 8 7 7 7 7 7 7 7 8 7 7 7 8 9 10 10 11 11 11 12 11 10 8 8 8 7 6 5
2 3 3 3 4 4 4 4 4 5 6 7 8 8 8 7 6 6 6 6 7 9 9 8 6 6 6 8 8 9 9 9 10 10 10 9 9 8 8 7 7 5 4
2 3 3 3 4 4 4 4 4 5 6 7 7 8 9 7 6 6 6 7 7 8 9 7 6 6 6 6 8 9 9 9 10 11 10 9 9 8 9 8 6 5 4
3 3 3 4 4 4 4 4 5 5 6 7 7 8 9 8 7 7 6 7 7 7 9 7 6 6 6 6 6 6 7 7 8 10 9 8 8 7 8 7 6 4 4
2 3 3 3 4 3 4 4 5 6 6 7 7 8 9 7 8 7 7 8 7 7 7 8 6 5 6 6 5 4 4 5 5 8 9 8 8 7 7 7 5 3 3
2 2 2 2 3 3 3 4 5 6 7 7 7 8 8 8 8 7 7 7 6 6 6 6 6 4 4 4 4 3 2 2 2 5 7 7 7 7 6 6 5 3 2
2 2 2 2 3 3 3 4 5 6 6 6 6 7 7 8 8 7 7 7 6 6 6 5 4 4 3 3 3 3 2 1 1 2 3 4 5 6 6 5 4 3 3
2 2 2 2 3 3 3 4 4 5 5 6 6 6 7 8 9 7 6 6 6 6 5 4 4 3 3 2 3 3 3 1 1 0 1 1 3 3 4 4 3 3 3
3 3 2 2 3 3 4 5 5 5 5 5 5 6 6 6 6 7 7 7 6 6 6 5 4 5 5 4 3 2 2 1 1 1 1 1 1 2 2 2 2 2 2
3 3 3 3 3 4 5 5 5 5 5 4 5 5 5 5 5 5 6 6 6 6 6 6 6 6 5 5 4 4 4 3 2 2 2 1 1 1 1 1 2 3 2
3 3 3 3 3 4 6 6 6 5 4 5 5 5 5 5 5 5 5 5 5 5 4 5 5 5 4 3 5 4 3 2 2 1 1 1 1 0 1 1 1 1 2
3 3 3 3 3 4 5 5 6 4 4 5 5 5 5 5 5 5 5 5 5 5 3 3 2 1 1 3 4 3 3 3 1 0 0 1 1 1 1 1 1 1 1
3 3 3 3 4 4 5 5 5 3 4 5 5 5 4 5 6 6 5 5 5 5 3 2 1 1 1 2 3 3 4 4 2 1 1 2 2 2 1 1 1 1 1
Wind_Direction
194 192 194 192 195 195 196 198 203 204 210 215 218 223 227 231 235 236 231 217 229 240 241 238 238 240 243 245 247 247 246 247 251 255 261 265 265 267 266 265 269 269 272
196 193 195 195 197 198 199 203 206 209 214 219 225 229 233 235 238 239 242 231 228 235 242 244 244 246 245 246 248 249 248 250 252 254 258 262 264 265 265 263 264 267 266
199 197 198 197 199 200 202 205 209 213 218 223 229 233 236 239 241 242 243 244 238 233 237 244 247 250 251 251 251 252 252 251 253 255 257 259 259 261 262 261 261 266 265
197 196 198 200 199 198 202 205 209 215 220 227 232 234 238 240 244 245 244 244 245 245 240 241 246 249 252 252 254 254 253 252 251 251 254 257 259 258 258 258 262 265 265
199 197 201 201 197 198 203 205 209 215 221 227 234 239 242 242 244 245 246 247 247 248 250 245 243 247 251 254 256 258 258 254 250 249 250 252 254 256 255 255 259 261 264
201 200 202 202 198 199 203 205 209 215 224 227 237 243 246 247 245 243 247 246 244 246 250 253 249 247 246 251 254 258 261 259 251 249 247 247 250 253 256 254 254 259 260
199 198 200 201 201 203 204 206 208 212 221 221 233 249 253 248 245 244 244 246 245 246 251 250 250 251 249 246 250 256 259 261 255 251 249 247 247 249 254 258 255 256 256
199 202 205 205 202 204 207 207 206 210 216 208 218 236 251 249 240 246 246 245 248 247 248 249 250 250 254 254 250 248 253 259 259 255 252 250 248 247 251 257 259 255 251
204 204 211 207 208 209 210 211 208 210 214 212 215 220 236 246 267 241 242 244 245 248 251 250 251 251 252 253 255 247 248 254 257 259 256 251 246 246 250 253 255 252 250
210 210 215 215 216 217 216 215 213 214 214 218 223 231 244 253 247 255 247 243 249 253 254 254 253 252 252 252 252 251 247 250 255 258 258 254 246 243 246 250 249 249 247
212 224 226 227 223 224 225 221 217 217 218 222 224 228 237 251 248 251 263 262 260 257 256 256 253 252 251 250 250 250 248 250 253 254 254 253 249 244 245 249 243 244 242
219 225 226 225 225 229 233 232 228 223 222 226 230 233 236 237 243 248 261 264 266 266 258 255 255 253 250 250 249 248 248 249 248 250 251 251 252 246 242 245 238 239 237
232 242 245 240 233 234 238 238 236 232 228 230 234 239 243 247 250 252 260 269 275 281 268 255 255 253 252 250 247 242 241 244 243 247 249 250 249 244 236 234 232 233 232
247 250 247 253 251 244 242 241 238 238 232 230 233 237 245 248 251 250 255 262 275 277 270 268 265 254 254 252 248 235 239 235 237 243 247 249 242 234 228 221 221 218 220
259 264 256 250 253 250 247 247 242 246 245 236 239 241 244 250 255 255 257 257 259 268 268 271 274 263 257 252 245 241 241 234 232 236 239 239 232 228 220 209 207 205 217
269 263 266 264 260 256 255 249 252 255 256 250 246 245 247 251 252 252 252 256 258 264 270 274 280 289 272 261 244 240 240 233 229 230 228 223 221 221 209 197 190 196 214
287 271 265 264 259 257 257 257 257 258 255 258 253 249 251 256 257 256 255 255 256 258 270 291 299 294 278 270 257 242 233 226 225 219 212 206 200 198 187 175 177 192 220
309 290 268 267 265 263 262 262 265 262 256 259 263 259 256 257 258 260 258 257 259 261 267 278 291 300 296 268 261 253 244 228 217 206 197 193 187 187 179 171 174 188 216
319 311 290 284 283 280 275 272 270 273 265 262 262 264 264 262 258 263 264 262 261 267 270 273 283 297 303 280 266 264 268 259 193 178 183 187 187 187 175 170 175 183 203
315 303 301 301 294 290 291 289 282 277 273 268 266 268 269 265 263 267 262 261 261 262 264 265 276 289 291 285 258 241 248 269 246 175 174 177 180 172 167 167 177 179 185
331 318 313 309 305 301 308 307 293 284 283 276 271 271 271 270 270 270 270 267 262 259 260 257 266 278 274 250 240 239 230 239 314 230 173 168 167 169 172 172 173 169 174
349 345 333 317 317 314 317 318 311 293 291 287 283 281 282 274 281 278 278 275 267 259 257 251 253 252 249 248 234 228 220 206 235 238 197 188 164 170 178 181 167 163 176
354 353 339 329 326 328 330 326 323 305 296 292 291 289 292 292 290 284 282 280 272 262 255 251 250 251 241 231 212 206 207 205 221 200 159 182 169 179 155 159 150 163 164
352 353 350 344 338 343 347 340 331 310 301 298 294 289 289 295 300 300 291 289 289 279 268 255 250 252 247 216 204 200 190 140 61 90 126 149 172 148 103 138 143 149 131
351 347 343 342 336 336 345 341 329 309 306 307 304 297 291 292 305 300 285 285 293 295 289 273 273 251 152 150 165 164 157 150 113 98 84 123 122 80 89 86 64 76 120
342 342 340 334 328 328 344 341 330 317 314 310 307 302 302 305 306 300 278 274 280 285 287 277 272 46 109 136 145 180 185 174 152 164 175 147 137 120 110 85 75 112 146
Height
1522 1524 1527 1528 1531 1533 1534 1536 1537 1539 1540 1540 1541 1541 1542 1542 1542 1542 1541 1540 1540 1540 1539 1539 1538 1537 1537 1536 1535 1534 1533 1533 1532 1531 1530 1529 1528 1527 1526 1525 1524 1523 1522
1519 1521 1523 1525 1528 1530 1531 1533 1534 1536 1537 1537 1538 1539 1539 1539 1539 1539 1538 1538 1537 1537 1536 1536 1535 1535 1534 1533 1532 1531 1530 1530 1529 1528 1527 1526 1525 1524 1523 1522 1521 1521 1520
1515 1517 1519 1522 1524 1526 1528 1530 1532 1533 1534 1534 1535 1535 1536 1536 1536 1536 1535 1535 1534 1533 1533 1532 1531 1531 1530 1529 1529 1528 1527 1526 1525 1524 1523 1522 1521 1521 1520 1519 1518 1517 1516
1511 1513 1515 1518 1520 1523 1524 1526 1528 1529 1530 1531 1531 1532 1532 1532 1532 1532 1532 1531 1530 1530 1529 1528 1527 1527 1526 1525 1525 1524 1523 1522 1521 1520 1519 1518 1518 1517 1516 1515 1515 1514 1513
1507 1509 1511 1514 1516 1518 1520 1522 1523 1525 1526 1527 1527 1528 1528 1528 1528 1528 1527 1527 1526 1526 1525 1524 1523 1523 1522 1521 1520 1520 1519 1518 1517 1516 1515 1514 1513 1512 1512 1512 1511 1510 1509
1503 1505 1507 1510 1512 1514 1516 1517 1519 1521 1522 1523 1524 1524 1524 1524 1523 1523 1523 1523 1522 1521 1521 1520 1519 1518 1517 1516 1515 1515 1514 1513 1512 1511 1510 1509 1508 1508 1507 1507 1506 1506 1505
1498 1501 1503 1506 1508 1510 1511 1513 1515 1516 1518 1519 1520 1519 1519 1519 1518 1518 1518 1518 1517 1517 1516 1515 1515 1513 1512 1511 1510 1509 1509 1508 1507 1506 1505 1504 1503 1502 1502 1502 1501 1501 1500
1494 1497 1499 1501 1503 1505 1507 1509 1510 1511 1513 1514 1515 1515 1514 1515 1513 1513 1512 1512 1512 1512 1511 1510 1509 1508 1507 1506 1504 1504 1503 1502 1501 1500 1499 1499 1498 1497 1497 1496 1496 1495 1495
1490 1492 1495 1497 1499 1500 1502 1503 1505 1506 1507 1509 1510 1511 1510 1508 1508 1506 1506 1506 1506 1506 1505 1504 1504 1502 1501 1500 1499 1497 1497 1496 1495 1495 1494 1493 1492 1492 1491 1491 1490 1490 1490
1487 1489 1491 1492 1494 1495 1496 1498 1500 1501 1502 1503 1504 1505 1506 1505 1504 1501 1500 1500 1500 1500 1499 1498 1497 1496 1495 1494 1492 1491 1491 1490 1489 1489 1488 1487 1487 1486 1486 1486 1485 1485 1485
1483 1485 1486 1487 1489 1490 1492 1493 1494 1495 1496 1497 1498 1498 1499 1499 1499 1497 1494 1493 1493 1493 1493 1492 1491 1490 1489 1487 1486 1485 1484 1483 1483 1482 1482 1481 1481 1480 1480 1480 1480 1480 1480
1479 1481 1482 1483 1484 1485 1486 1487 1488 1489 1490 1491 1492 1492 1492 1493 1493 1492 1490 1487 1486 1485 1485 1485 1484 1483 1482 1481 1480 1478 1478 1476 1475 1475 1475 1475 1475 1475 1474 1475 1475 1475 1475
1475 1476 1478 1479 1480 1480 1481 1482 1483 1483 1484 1484 1485 1485 1486 1486 1487 1486 1486 1483 1481 1478 1478 1477 1477 1476 1475 1474 1473 1472 1471 1469 1469 1469 1469 1469 1469 1468 1468 1469 1470 1470 1471
1471 1472 1474 1475 1475 1476 1477 1477 1477 1477 1478 1478 1479 1479 1479 1480 1480 1480 1480 1478 1475 1473 1471 1470 1470 1469 1468 1468 1466 1465 1464 1463 1463 1463 1463 1462 1462 1462 1463 1464 1465 1466 1467
1468 1469 1470 1471 1471 1471 1472 1472 1472 1472 1472 1472 1472 1473 1473 1473 1473 1473 1473 1473 1472 1468 1464 1464 1463 1462 1462 1461 1459 1458 1457 1456 1456 1456 1456 1456 1457 1457 1458 1458 1460 1461 1462
1465 1465 1466 1466 1467 1467 1467 1467 1466 1466 1467 1466 1466 1466 1466 1467 1467 1466 1466 1466 1466 1464 1460 1457 1457 1456 1455 1454 1452 1451 1450 1450 1450 1449 1450 1450 1451 1452 1453 1453 1455 1457 1457
1461 1461 1462 1462 1462 1462 1462 1462 1461 1461 1461 1460 1460 1460 1460 1460 1460 1460 1459 1459 1458 1458 1455 1452 1451 1450 1449 1447 1446 1445 1444 1444 1443 1444 1444 1445 1446 1447 1447 1449 1450 1452 1454
1458 1458 1458 1458 1458 1457 1457 1457 1456 1456 1455 1455 1455 1454 1454 1454 1453 1453 1452 1452 1451 1451 1450 1447 1445 1444 1443 1441 1440 1438 1438 1438 1438 1438 1439 1440 1441 1442 1443 1444 1446 1447 1449
1455 1454 1454 1454 1454 1453 1452 1452 1452 1451 1450 1449 1449 1449 1448 1448 1447 1446 1446 1445 1445 1444 1443 1442 1439 1438 1437 1436 1435 1433 1432 1432 1433 1433 1435 1436 1436 1438 1439 1440 1441 1443 1445
1452 1451 1451 1450 1450 1449 1448 1447 1447 1446 1445 1444 1444 1443 1443 1442 1441 1440 1440 1439 1438 1438 1437 1435 1434 1433 1432 1431 1431 1429 1428 1429 1429 1429 1430 1432 1433 1434 1436 1437 1438 1440 1442
1449 1448 1447 1447 1446 1445 1444 1443 1442 1442 1441 1440 1439 1439 1438 1437 1436 1435 1434 1433 1433 1432 1431 1430 1429 1428 1427 1426 1426 1426 1425 1426 1426 1426 1427 1428 1430 1431 1432 1433 1435 1437 1439
1446 1445 1445 1444 1443 1442 1441 1441 1440 1439 1437 1435 1434 1434 1433 1432 1431 1430 1429 1428 1428 1427 1425 1425 1423 1423 1422 1422 1422 1423 1422 1422 1423 1425 1425 1426 1427 1428 1430 1431 1432 1434 1436
1444 1443 1442 1441 1440 1439 1439 1438 1437 1435 1433 1432 1430 1429 1428 1427 1426 1425 1424 1424 1423 1422 1422 1421 1419 1418 1418 1419 1419 1419 1420 1419 1419 1421 1422 1423 1425 1426 1427 1429 1430 1432 1434
1443 1441 1439 1438 1437 1436 1435 1434 1433 1432 1430 1428 1427 1425 1424 1423 1422 1421 1420 1419 1418 1417 1417 1416 1416 1415 1415 1415 1416 1416 1417 1417 1418 1419 1420 1421 1422 1423 1425 1427 1429 1430 1431
1441 1439 1438 1436 1435 1433 1432 1431 1430 1429 1427 1425 1424 1423 1421 1420 1419 1418 1416 1415 1414 1413 1413 1412 1412 1412 1411 1411 1412 1413 1414 1414 1415 1417 1418 1419 1420 1421 1423 1425 1427 1428 1429
1439 1438 1436 1434 1432 1431 1429 1428 1427 1425 1424 1422 1421 1419 1418 1416 1415 1414 1413 1411 1410 1409 1409 1408 1408 1408 1408 1408 1408 1409 1410 1412 1412 1414 1416 1417 1418 1420 1421 1423 1425 1426 1428